Regional Weather Roundup
Issued by NWS State College, PA

Home | Current Version | Previous Version | Graphics & Text | Print | Product List | Glossary Off
Versions: 1 2 3 4 5 6 7 8 9 10 11 12 13 14 15 16 17 18 19 20 21 22 23 24 25 26 27 28 29 30 31 32 33 34 35 36 37 38 39 40 41 42 43 44 45 46 47 48 49 50

000
ASUS41 KCTP 241210
RWRCTP

REGIONAL WEATHER ROUNDUP
NATIONAL WEATHER SERVICE STATE COLLEGE PA
800 AM EDT THU APR 24 2014

Note: "fair" indicates few or no clouds below 12,000 feet with no
significant weather and/or obstructions to visibility.

* = STATION THAT DOES NOT REPORT PRECIPITATION /E.G. RAIN...SNOW...ETC/
    THUNDER OR FOG.

PAZ002>004-007>009-013>016-020>023-029>032-241300-
WESTERN PENNSYLVANIA

CITY           SKY/WX    TMP DP  RH WIND       PRES   REMARKS
ERIE           SUNNY     34  26  72 CALM      30.17R
MEADVILLE      SUNNY     34  23  64 CALM      30.13R
FRANKLIN*      SUNNY     34  19  55 CALM      30.15R
NEW CASTLE     FAIR      32  23  69 CALM      30.19R
BEAVER COUNTY  PTSUNNY   34  21  60 CALM      30.16R
BUTLER*        PTSUNNY   32  18  55 CALM      30.17R
PITTSBURGH INT PTSUNNY   36  19  50 N3        30.16R
PITTSBURGH     PTSUNNY   38  19  46 N3        30.16R
INDIANA*       PTSUNNY   30  23  74 SW5       30.15R
LATROBE        MOSUNNY   34  23  64 CALM      30.17R
WASHINGTON CO* PTSUNNY   32  25  74 CALM      30.18R
$$

PAZ004>006-010>012-017>019-024>028-033>037-041-042-045-046-049>053-241300-
CENTRAL PENNSYLVANIA

CITY           SKY/WX    TMP DP  RH WIND       PRES   REMARKS
BRADFORD       SUNNY     31  18  58 NW6       30.08R
DUBOIS         SUNNY     32  22  66 NW7       30.10R
CLEARFIELD     SUNNY     33  23  66 NW7       30.11R
JOHNSTOWN      SUNNY     31  19  61 W6        30.09R
ALTOONA        SUNNY     36  22  56 W5        30.11R
STATE COLLEGE  SUNNY     39  19  45 NW7       30.10R
WILLIAMSPORT   SUNNY     40  20  44 W10       30.07R
SELINSGROVE    SUNNY     42  19  39 VRB6      30.09R
FT INDIANTOWN  SUNNY     43  15  33 N8        30.06R
CAPITAL CITY   SUNNY     44  17  33 NW8       30.09R
HARRISBURG     SUNNY     45  16  31 NW10      30.08R
YORK           SUNNY     43  23  45 W8        30.09R
$$

PAZ038>040-043-044-047-048-054-055-060>062-067>071-241300-
EASTERN PENNSYLVANIA

CITY           SKY/WX    TMP DP  RH WIND       PRES   REMARKS
SCRANTON       SUNNY     38  18  44 NW12      30.00R
MOUNT POCONO   SUNNY     34  17  50 NW14G30   29.92R
ALLENTOWN      SUNNY     42  17  36 NW15G22   30.01R
QUAKERTOWN*    SUNNY     41  18  38 W9G16     30.02R
READING        SUNNY     43  18  36 NW10      30.05R
LANCASTER      SUNNY     42  18  37 NW10      30.06R
COATESVILLE    SUNNY     41  18  38 NW13G18   30.04R
POTTSTOWN      SUNNY     42  20  41 NW12      30.04R
BLUE BELL      SUNNY     45  19  36 W9        30.01R
DOYLESTOWN     SUNNY     41  18  39 NW9G28    29.99R
WILLOW GROVE   NOT AVBL
NORTH PHILA    SUNNY     46  17  31 NW16G28   30.02R
PHILADELPHIA   SUNNY     46  15  28 NW17G23   30.04R
$$



USA.gov is the U.S. government's official web portal to all federal, state and local government web resources and services.